Spirit of St Louis, MO

4:42 AM CDT on June 28, 2017 (GMT -0500)
Spirit Of Saint Louis

Weather History for KSUS - June, 2013

Change the Weather History Date:

Tuesday, June 11, 2013

  Actual Average Record
Temperature  
Mean Temperature 74 °F -  
Max Temperature 91 °F 80 °F 93 °F (2016)
Min Temperature 57 °F 60 °F 57 °F (2013)
Cooling Degree Days 9    
Growing Degree Days 24 (Base 50)    
Moisture  
Dew Point 65 °F    
Average Humidity 77    
Maximum Humidity 100    
Minimum Humidity 48    
Precipitation  
Precipitation 0.00 in - - ()
Sea Level Pressure  
Sea Level Pressure 29.89 in    
Wind  
Wind Speed 2 mph (SSW)    
Max Wind Speed 16 mph    
Max Gust Speed 22 mph    
Visibility 8 miles    
Events      
Averages and records for this station are not official NWS values.
T = Trace of Precipitation, MM = Missing Value Source: NWS Daily Summary

Daily Weather History Graph

Daily Weather History Graph

Search for Another Location

Airport or City:

Trip Planner

Search our weather history database for the weather conditions in past years. The results will help you decide how hot, cold, wet, or windy it might be!

Date:

Astronomy

Jun. 11, 2013 Rise Set
Actual Time 5:37 AM CDT 8:27 PM CDT
Civil Twilight 5:05 AM CDT 8:59 PM CDT
Nautical Twilight 4:25 AM CDT 9:39 PM CDT
Astronomical Twilight 3:40 AM CDT 10:24 PM CDT
Moon 8:19 AM CDT (6/11) 10:32 PM CDT (6/11)
Length of Visible Light 15h 53m
Length of Day
14h 49m
Waxing Crescent, 8% of the Moon is Illuminated
Jun 11
Waxing Crescent
Jun 16
First Quarter
Jun 23
Full
Jun 29
Last Quarter
Jul 8
New

Hourly Weather History & Observations

Time (CDT) Temp. Heat Index Dew Point Humidity Pressure Visibility Wind Dir Wind Speed Gust Speed Precip Events Conditions
12:54 AM 61.0 °F - 59.0 °F 93% 29.91 in 8.0 mi Calm Calm - N/A   Clear
1:54 AM 61.0 °F - 59.0 °F 93% 29.92 in 5.0 mi Calm Calm - N/A   Clear
2:54 AM 60.1 °F - 57.9 °F 93% 29.91 in 6.0 mi Calm Calm - N/A   Clear
3:54 AM 59.0 °F - 57.0 °F 93% 29.91 in 2.0 mi Calm Calm - N/A   Clear
4:00 AM 59.0 °F - 57.2 °F 94% 29.93 in 0.8 mi Calm Calm - N/A   Clear
4:14 AM 59.0 °F - 57.2 °F 94% 29.94 in 2.0 mi Calm Calm - N/A   Clear
4:21 AM 57.2 °F - 57.2 °F 100% 29.94 in 5.0 mi Calm Calm - N/A   Clear
4:48 AM 59.0 °F - 57.2 °F 94% 29.94 in 1.8 mi Calm Calm - N/A   Scattered Clouds
4:54 AM 60.1 °F - 57.9 °F 93% 29.93 in 2.0 mi Calm Calm - N/A   Mostly Cloudy
5:04 AM 60.8 °F - 57.2 °F 88% 29.94 in 4.0 mi Calm Calm - N/A   Scattered Clouds
5:54 AM 60.1 °F - 59.0 °F 96% 29.93 in 7.0 mi Calm Calm - N/A   Mostly Cloudy
6:54 AM 64.9 °F - 62.1 °F 90% 29.93 in 9.0 mi Calm Calm - N/A   Partly Cloudy
7:54 AM 72.0 °F - 63.0 °F 73% 29.94 in 10.0 mi ESE 3.5 mph - N/A   Clear
8:54 AM 77.0 °F - 64.9 °F 66% 29.94 in 10.0 mi Variable 3.5 mph - N/A   Scattered Clouds
9:54 AM 80.1 °F 82.3 °F 66.9 °F 64% 29.91 in 10.0 mi Variable 4.6 mph - N/A   Scattered Clouds
10:54 AM 82.9 °F 85.8 °F 68.0 °F 60% 29.89 in 10.0 mi South 8.1 mph - N/A   Mostly Cloudy
11:54 AM 86.0 °F 90.1 °F 69.1 °F 57% 29.88 in 10.0 mi SSW 6.9 mph - N/A   Mostly Cloudy
12:54 PM 87.1 °F 92.8 °F 71.1 °F 59% 29.88 in 10.0 mi SSW 5.8 mph - N/A   Mostly Cloudy
1:54 PM 91.0 °F 95.6 °F 69.1 °F 48% 29.86 in 10.0 mi SW 16.1 mph 21.9 mph N/A   Mostly Cloudy
2:54 PM 90.0 °F 94.5 °F 69.1 °F 50% 29.87 in 10.0 mi SSW 4.6 mph - N/A   Mostly Cloudy
3:54 PM 90.0 °F 94.5 °F 69.1 °F 50% 29.86 in 10.0 mi SW 8.1 mph - N/A   Mostly Cloudy
4:54 PM 87.1 °F 95.4 °F 73.9 °F 65% 29.87 in 10.0 mi Calm Calm - N/A   Mostly Cloudy
5:54 PM 86.0 °F 93.0 °F 73.0 °F 65% 29.84 in 10.0 mi South 5.8 mph - N/A   Overcast
6:54 PM 86.0 °F 93.0 °F 73.0 °F 65% 29.82 in 10.0 mi South 9.2 mph - N/A   Overcast
7:54 PM 82.0 °F 87.9 °F 73.9 °F 76% 29.85 in 10.0 mi Calm Calm - N/A   Mostly Cloudy
8:54 PM 78.1 °F - 73.9 °F 87% 29.85 in 10.0 mi Calm Calm - N/A   Mostly Cloudy
9:54 PM 79.0 °F - 73.0 °F 82% 29.85 in 10.0 mi Calm Calm - N/A   Clear
10:54 PM 80.1 °F 83.8 °F 72.0 °F 76% 29.84 in 10.0 mi Calm Calm - N/A   Clear
11:54 PM 82.9 °F 87.5 °F 71.1 °F 67% 29.85 in 10.0 mi SSW 4.6 mph - N/A   Clear